パロマー彗星

C/2020 T2 ( Palomar )

English version
Home page
Updated on January 23, 2021

---------------------------------------------------------------------

・ プロフィール

発見日 2020年10月7日
発見光度 19.3等
発見者 Dmitry A. Duev (Palomar, Zwicky Transient Facility's Twilight Survey)

・ 写真集

・ 軌道要素

Epoch 2021 July 5.0 TT = JDT 2459400.5
T 2021 July 11.15102 TT                                 Rudenko
q   2.0547232            (2000.0)            P               Q
z  +0.0032102      Peri.  150.38278     -0.53887716     +0.70302525
 +/-0.0000037      Node    83.04824     -0.83513851     -0.37375807
e   0.9934039      Incl.   27.87300     -0.11025003     -0.60502926
From 136 observations 2019 Dec. 11-2020 Nov. 15, mean residual 0".4.

・ 星図

・ 光度変化

        m1 = 8.5 + 5 logΔ + 12.0 log r

---------------------------------------------------------------------

軌道要素はM.P.E.C. 2020-W26に掲載されたものです。
星図はステラナビゲータ Ver.10 (アストロアーツ) で作成したものです。
光度グラフはComet for Windowsで作成したものです。

---------------------------------------------------------------------

Copyright(C) Seiichi Yoshida (comet@aerith.net). All rights reserved.